Temp
38 38 38 38 38 38 38 37 38 38 38 39 38 39 39 40 41 41 41 41 41 41 41 40 40 40 41 39 39 40 40 41 40 40 39 39 38 39 41 41 41 42
37 37 37 37 38 38 37 36 36 36 36 36 37 37 39 39 40 40 39 39 40 40 40 40 40 39 39 39 38 38 38 38 38 40 39 37 38 37 38 39 40 41
35 35 35 35 36 36 36 37 36 36 36 37 37 37 38 38 37 37 38 38 38 38 39 39 38 38 37 36 36 37 37 37 37 38 37 37 38 37 37 37 37 38
34 35 34 33 34 34 35 34 35 35 35 36 37 37 38 38 38 37 37 37 36 35 35 36 36 36 36 36 36 36 36 36 36 36 36 37 36 36 37 37 37 37
32 34 33 33 33 32 32 33 33 33 33 34 34 34 35 36 36 36 37 37 37 37 37 36 35 35 35 35 35 36 36 36 36 35 35 36 37 36 37 36 36 36
32 32 33 34 35 34 36 35 34 34 34 33 33 32 31 32 33 35 36 36 37 37 37 37 37 37 36 35 35 34 34 35 36 35 35 35 36 36 37 37 36 36
35 35 36 35 36 34 34 34 34 35 35 35 36 35 35 34 33 32 32 33 34 35 36 36 36 37 37 37 36 35 35 34 34 34 34 35 35 35 35 34 35 35
34 34 34 34 32 33 30 31 31 31 31 33 34 35 35 35 35 35 34 33 32 33 35 36 36 36 36 36 36 36 36 37 36 35 34 34 34 34 35 35 35 35
30 30 31 31 31 33 31 32 31 31 31 30 31 32 33 34 34 33 33 34 34 34 34 34 35 35 35 35 35 35 35 36 36 35 34 34 34 34 34 35 34 34
28 28 29 28 28 29 29 30 30 30 30 30 30 29 30 32 32 32 31 31 32 33 33 33 34 34 34 35 35 35 35 35 34 35 35 35 35 35 34 34 34 34
27 27 28 28 28 29 29 28 28 29 28 28 29 29 29 29 30 30 30 30 30 30 31 32 33 33 33 34 34 34 34 34 34 34 33 34 35 35 36 35 34 34
27 27 29 29 29 29 29 29 29 29 29 29 28 29 29 28 28 29 30 30 30 29 29 30 31 32 32 32 33 34 34 34 34 33 33 33 33 34 34 34 35 35
30 30 30 30 30 30 30 29 29 29 29 29 29 28 28 28 28 28 28 28 29 29 28 29 29 30 31 31 32 32 32 33 34 33 33 33 33 33 33 33 34 34
30 30 30 31 31 30 30 29 29 29 29 29 28 27 28 27 28 28 29 28 28 28 29 28 28 29 29 29 30 30 31 31 32 32 33 33 33 33 33 33 34 34
30 30 31 31 31 31 31 31 31 30 30 28 28 28 29 28 28 27 27 28 28 28 28 28 29 29 30 30 29 30 30 30 31 31 31 31 32 32 33 33 34 34
29 30 30 30 30 30 30 30 30 30 30 29 29 29 28 28 27 28 27 27 27 28 28 28 29 30 31 34 35 32 31 32 32 31 30 30 31 31 32 32 33 34
28 29 29 29 29 29 28 28 28 28 28 28 28 28 28 28 28 27 27 28 27 27 27 28 28 29 32 34 34 35 33 32 31 31 31 31 31 31 31 31 32 33
28 28 27 27 27 26 26 26 26 26 26 26 26 26 27 27 26 27 27 27 27 27 26 27 27 30 33 33 34 34 34 32 31 31 31 31 31 31 31 31 31 32
26 25 25 25 25 25 25 24 24 24 24 24 24 25 26 25 25 26 25 26 26 25 25 26 26 30 32 32 32 33 33 32 29 29 30 30 31 31 31 31 31 31
24 23 23 23 23 22 22 22 21 21 22 23 23 23 23 23 23 23 24 24 24 24 24 25 25 28 30 31 31 32 32 32 28 28 28 29 30 30 31 31 31 31
22 21 20 20 20 19 19 19 19 19 20 20 20 20 20 20 20 20 21 21 21 22 22 22 23 28 29 30 30 31 31 31 26 26 26 26 28 29 30 30 31 31
19 17 16 16 16 16 15 16 16 16 16 16 16 16 17 17 18 18 17 18 19 19 19 19 21 26 27 28 28 29 30 26 24 24 23 24 24 26 28 29 30 31
16 14 12 12 12 12 12 12 12 11 11 13 11 12 12 13 13 14 15 15 15 16 16 16 17 21 25 26 27 28 27 23 23 22 22 22 22 24 25 26 28 29
12 11 10 9 9 8 8 9 9 9 8 10 9 8 9 9 10 10 11 12 12 12 14 13 14 19 23 24 25 25 24 21 20 20 19 19 20 22 23 24 26 28
9 9 8 7 7 7 6 6 6 6 7 8 7 7 7 8 8 7 8 9 10 11 14 12 11 14 19 20 22 22 21 18 18 18 18 18 19 19 21 22 23 25
8 7 6 6 5 5 5 5 6 5 5 5 5 5 5 5 6 6 5 6 7 8 8 9 9 10 13 19 20 21 22 18 18 17 16 17 18 19 18 19 20 21
MSLP
1023.56 1023.60 1023.72 1023.76 1023.80 1023.76 1023.52 1023.20 1022.92 1022.68 1022.44 1022.08 1021.72 1021.40 1021.28 1021.24 1021.08 1021.00 1020.84 1020.60 1020.32 1020.00 1019.68 1019.48 1019.28 1019.16 1019.00 1018.92 1018.88 1018.84 1018.80 1018.68 1018.56 1018.48 1018.36 1018.32 1018.24 1018.16 1018.04 1017.92 1017.84 1017.80
1023.76 1023.80 1023.92 1024.00 1023.96 1023.92 1023.80 1023.56 1023.32 1023.04 1022.72 1022.36 1022.04 1021.72 1021.44 1021.32 1021.24 1021.16 1021.00 1020.80 1020.56 1020.32 1020.04 1019.76 1019.52 1019.32 1019.12 1018.96 1018.84 1018.80 1018.72 1018.64 1018.48 1018.44 1018.36 1018.24 1018.16 1018.08 1017.92 1017.80 1017.64 1017.60
1024.00 1023.96 1023.96 1024.04 1024.12 1024.04 1023.84 1023.68 1023.48 1023.36 1023.12 1022.76 1022.28 1021.88 1021.68 1021.56 1021.52 1021.44 1021.32 1021.16 1020.88 1020.56 1020.24 1019.96 1019.64 1019.40 1019.20 1019.04 1018.92 1018.80 1018.72 1018.56 1018.44 1018.28 1018.32 1018.20 1018.08 1018.00 1017.80 1017.72 1017.60 1017.48
1023.96 1024.00 1024.08 1024.16 1024.24 1024.12 1023.96 1023.72 1023.56 1023.40 1023.24 1022.92 1022.60 1022.28 1022.00 1021.84 1021.72 1021.56 1021.40 1021.28 1021.20 1020.96 1020.72 1020.36 1020.00 1019.64 1019.32 1019.08 1018.92 1018.76 1018.60 1018.56 1018.48 1018.36 1018.28 1018.12 1018.08 1017.96 1017.80 1017.68 1017.48 1017.40
1024.12 1024.12 1024.20 1024.24 1024.24 1024.16 1023.88 1023.68 1023.52 1023.48 1023.28 1023.04 1022.68 1022.40 1022.20 1022.04 1021.92 1021.80 1021.64 1021.48 1021.28 1021.08 1020.80 1020.56 1020.32 1020.00 1019.72 1019.36 1019.08 1018.88 1018.64 1018.52 1018.36 1018.32 1018.24 1018.04 1017.84 1017.84 1017.68 1017.64 1017.44 1017.24
1024.48 1024.52 1024.32 1024.12 1023.84 1023.64 1023.48 1023.48 1023.44 1023.28 1023.00 1022.72 1022.56 1022.44 1022.32 1022.20 1022.04 1021.92 1021.76 1021.60 1021.40 1021.28 1021.04 1020.76 1020.40 1020.04 1019.80 1019.56 1019.32 1019.04 1018.80 1018.56 1018.36 1018.32 1018.20 1018.00 1017.80 1017.64 1017.56 1017.44 1017.32 1017.16
1024.48 1024.40 1024.20 1024.12 1024.00 1023.96 1023.88 1023.76 1023.56 1023.28 1023.00 1022.76 1022.40 1022.12 1022.04 1021.96 1021.92 1021.92 1021.80 1021.68 1021.52 1021.36 1021.20 1021.00 1020.68 1020.32 1019.96 1019.68 1019.44 1019.16 1018.88 1018.72 1018.44 1018.28 1018.12 1017.92 1017.80 1017.52 1017.44 1017.32 1017.16 1017.00
1024.44 1024.32 1024.28 1024.16 1024.12 1024.00 1023.88 1023.72 1023.60 1023.40 1023.24 1023.00 1022.72 1022.48 1022.24 1022.04 1021.80 1021.64 1021.48 1021.48 1021.40 1021.24 1021.08 1020.88 1020.64 1020.36 1020.12 1019.88 1019.64 1019.32 1019.00 1018.72 1018.52 1018.28 1018.04 1017.80 1017.68 1017.52 1017.28 1017.16 1016.96 1016.76
1024.48 1024.40 1024.32 1024.24 1024.16 1024.00 1023.76 1023.48 1023.32 1023.08 1022.92 1022.72 1022.52 1022.32 1022.24 1022.16 1022.08 1021.92 1021.76 1021.48 1021.24 1021.00 1020.84 1020.64 1020.44 1020.20 1019.92 1019.76 1019.52 1019.32 1019.08 1018.76 1018.52 1018.32 1018.12 1017.84 1017.56 1017.32 1017.12 1016.96 1016.80 1016.64
1024.44 1024.40 1024.28 1024.16 1024.04 1023.88 1023.68 1023.44 1023.24 1023.04 1022.84 1022.68 1022.48 1022.36 1022.20 1022.04 1021.96 1021.84 1021.76 1021.68 1021.48 1021.20 1020.92 1020.56 1020.16 1019.88 1019.64 1019.56 1019.40 1019.16 1018.92 1018.68 1018.44 1018.20 1017.96 1017.68 1017.48 1017.24 1017.04 1016.88 1016.64 1016.36
1024.44 1024.36 1024.28 1024.16 1024.04 1023.88 1023.68 1023.52 1023.32 1023.16 1023.04 1022.84 1022.64 1022.48 1022.36 1022.24 1022.12 1022.04 1021.92 1021.80 1021.68 1021.44 1021.12 1020.72 1020.32 1019.92 1019.52 1019.16 1018.96 1018.88 1018.76 1018.56 1018.32 1018.12 1017.88 1017.56 1017.28 1016.96 1016.72 1016.60 1016.36 1016.16
1024.32 1024.28 1024.16 1024.12 1023.96 1023.84 1023.64 1023.44 1023.28 1023.12 1022.88 1022.76 1022.64 1022.44 1022.28 1022.24 1022.12 1022.00 1021.88 1021.64 1021.44 1021.20 1020.88 1020.56 1020.24 1019.96 1019.72 1019.44 1019.04 1018.60 1018.28 1018.08 1018.00 1017.88 1017.72 1017.48 1017.16 1016.84 1016.56 1016.32 1016.08 1015.76
1024.08 1024.00 1024.00 1023.92 1023.80 1023.68 1023.52 1023.36 1023.20 1023.04 1022.92 1022.72 1022.60 1022.52 1022.36 1022.16 1022.04 1021.88 1021.68 1021.52 1021.20 1020.96 1020.72 1020.40 1020.12 1019.88 1019.64 1019.36 1019.04 1018.80 1018.48 1018.04 1017.60 1017.28 1017.08 1016.92 1016.68 1016.52 1016.28 1016.08 1015.80 1015.56
1024.08 1024.04 1023.92 1023.80 1023.64 1023.52 1023.36 1023.24 1023.12 1023.00 1022.84 1022.64 1022.52 1022.40 1022.24 1022.12 1021.88 1021.68 1021.36 1021.20 1020.96 1020.68 1020.44 1020.24 1020.04 1019.76 1019.52 1019.24 1019.00 1018.72 1018.40 1018.04 1017.72 1017.28 1016.84 1016.40 1016.08 1015.84 1015.72 1015.56 1015.44 1015.28
1024.12 1024.04 1023.96 1023.80 1023.64 1023.44 1023.24 1023.04 1022.84 1022.72 1022.60 1022.48 1022.36 1022.24 1022.04 1021.80 1021.64 1021.44 1021.16 1020.88 1020.64 1020.44 1020.20 1020.04 1019.84 1019.52 1019.20 1019.00 1018.76 1018.40 1018.12 1017.80 1017.40 1017.04 1016.68 1016.28 1015.88 1015.56 1015.32 1015.20 1015.08 1014.92
1024.28 1024.16 1024.00 1023.84 1023.68 1023.48 1023.28 1023.08 1022.84 1022.60 1022.36 1022.12 1021.92 1021.80 1021.64 1021.48 1021.28 1021.00 1020.76 1020.52 1020.20 1019.96 1019.80 1019.60 1019.32 1019.00 1018.68 1018.44 1018.28 1018.00 1017.64 1017.32 1017.00 1016.60 1016.32 1016.00 1015.68 1015.32 1014.96 1014.72 1014.52 1014.40
1024.48 1024.28 1024.12 1024.00 1023.76 1023.60 1023.36 1023.12 1022.88 1022.60 1022.40 1022.12 1021.88 1021.64 1021.36 1021.12 1020.92 1020.60 1020.36 1020.12 1019.88 1019.56 1019.20 1018.96 1018.68 1018.36 1018.08 1017.88 1017.72 1017.48 1017.32 1017.00 1016.64 1016.24 1015.92 1015.60 1015.40 1015.08 1014.68 1014.32 1013.96 1013.76
1024.60 1024.44 1024.32 1024.12 1023.96 1023.80 1023.56 1023.32 1023.08 1022.80 1022.52 1022.20 1021.92 1021.52 1021.16 1020.92 1020.64 1020.36 1020.08 1019.84 1019.60 1019.36 1019.04 1018.64 1018.20 1017.84 1017.52 1017.32 1017.20 1017.04 1016.88 1016.68 1016.36 1015.92 1015.52 1015.20 1014.88 1014.60 1014.24 1013.88 1013.56 1013.32
1024.80 1024.68 1024.48 1024.28 1024.16 1024.00 1023.80 1023.60 1023.40 1023.12 1022.80 1022.44 1022.00 1021.56 1021.20 1020.88 1020.44 1020.16 1019.84 1019.60 1019.44 1019.16 1018.84 1018.40 1018.00 1017.52 1017.16 1017.04 1016.88 1016.68 1016.52 1016.40 1016.12 1015.76 1015.36 1014.88 1014.48 1014.12 1013.76 1013.40 1013.04 1012.80
1025.04 1024.88 1024.72 1024.56 1024.44 1024.32 1024.16 1023.92 1023.72 1023.40 1023.00 1022.60 1022.16 1021.72 1021.36 1020.92 1020.52 1020.20 1019.84 1019.56 1019.28 1019.00 1018.64 1018.20 1017.80 1017.40 1017.16 1016.96 1016.76 1016.56 1016.32 1016.12 1015.88 1015.60 1015.12 1014.60 1014.12 1013.68 1013.28 1012.92 1012.56 1012.32
1025.36 1025.28 1025.20 1025.00 1024.88 1024.72 1024.52 1024.28 1023.96 1023.56 1023.16 1022.84 1022.56 1022.16 1021.76 1021.32 1020.88 1020.44 1020.00 1019.64 1019.32 1019.04 1018.68 1018.12 1017.52 1017.20 1017.08 1016.96 1016.76 1016.52 1016.20 1015.96 1015.72 1015.44 1015.00 1014.48 1013.96 1013.52 1013.08 1012.64 1012.24 1011.88
1025.84 1025.72 1025.64 1025.56 1025.44 1025.20 1024.96 1024.60 1024.16 1023.92 1023.68 1023.40 1023.12 1022.60 1022.16 1021.76 1021.16 1020.92 1020.32 1019.84 1019.44 1019.24 1018.88 1018.20 1017.40 1017.12 1017.00 1016.92 1016.72 1016.44 1016.16 1015.80 1015.52 1015.16 1014.76 1014.36 1013.84 1013.36 1012.92 1012.48 1012.04 1011.64
1026.28 1026.28 1026.12 1025.96 1025.76 1025.52 1025.16 1024.92 1024.72 1024.48 1024.24 1024.04 1023.56 1022.92 1022.48 1022.04 1021.60 1021.08 1020.56 1020.16 1019.68 1019.36 1019.08 1018.36 1017.52 1017.08 1017.04 1016.84 1016.52 1016.20 1015.96 1015.68 1015.36 1014.96 1014.52 1014.04 1013.44 1013.00 1012.64 1012.28 1011.96 1011.60
1026.76 1026.68 1026.52 1026.20 1025.96 1025.76 1025.48 1025.20 1025.08 1024.84 1024.56 1024.20 1023.84 1023.12 1022.56 1022.20 1021.88 1021.24 1020.68 1020.44 1020.08 1019.56 1019.24 1018.68 1017.68 1017.16 1017.20 1016.84 1016.44 1016.08 1015.96 1015.72 1015.28 1014.88 1014.32 1013.84 1013.16 1012.76 1012.40 1011.96 1011.44 1011.12
1027.00 1026.88 1026.72 1026.44 1026.12 1025.84 1025.68 1025.36 1025.00 1024.68 1024.24 1023.96 1023.60 1023.20 1022.60 1022.20 1021.88 1021.40 1020.68 1020.36 1020.24 1019.80 1019.32 1019.04 1018.24 1017.60 1017.64 1017.28 1016.60 1016.12 1016.00 1015.68 1015.20 1014.52 1013.80 1013.16 1012.80 1012.24 1011.92 1011.48 1010.96 1010.56
1027.12 1026.96 1026.72 1026.56 1026.16 1025.72 1025.56 1025.32 1024.84 1024.36 1024.00 1023.76 1023.28 1023.00 1022.48 1021.96 1021.64 1021.12 1020.60 1020.12 1020.12 1019.80 1019.40 1019.12 1018.52 1017.68 1017.68 1017.12 1016.44 1015.96 1015.68 1015.40 1014.84 1014.28 1013.48 1012.84 1012.40 1011.96 1011.44 1010.76 1010.60 1010.08
Wind_Speed
7 6 6 6 6 6 6 6 6 6 7 7 7 7 7 6 8 8 8 8 8 7 7 6 5 5 5 4 4 5 5 6 6 6 6 6 6 7 9 8 8 8
8 7 5 4 5 5 6 5 6 6 7 6 6 6 7 8 9 9 9 9 8 8 7 6 6 5 5 5 5 5 6 6 7 5 6 6 7 6 8 8 9 8
6 6 7 7 7 7 7 6 6 6 6 6 7 7 7 6 8 8 8 9 9 10 9 8 7 7 6 5 5 5 6 6 7 7 6 7 7 7 7 7 7 8
6 6 5 5 5 5 5 6 6 6 6 7 8 7 6 7 7 9 9 8 7 8 8 9 9 8 7 7 6 6 6 6 6 6 6 7 6 7 7 6 7 7
6 6 4 4 3 3 3 4 6 5 5 5 6 6 7 8 7 7 7 9 8 9 9 8 7 8 7 7 7 7 7 7 6 5 6 7 7 6 7 6 7 8
4 3 4 5 7 7 9 8 7 7 7 6 5 4 5 5 6 7 8 8 8 8 9 9 10 9 8 7 7 6 6 7 7 6 7 7 8 7 6 6 7 9
4 3 4 4 5 4 4 5 6 8 9 8 9 10 8 8 6 5 5 6 6 7 7 8 8 9 9 8 8 8 8 7 7 7 7 8 7 9 7 6 7 8
4 4 4 5 4 5 4 4 3 4 4 5 7 8 7 9 11 10 9 8 5 6 7 7 7 8 7 7 8 9 9 6 6 7 8 8 7 8 8 7 7 8
2 2 2 3 2 4 4 4 3 4 4 4 5 5 5 6 6 7 8 10 10 10 9 7 7 7 7 7 8 8 8 8 8 7 7 8 8 9 9 8 8 8
3 3 4 4 4 4 5 5 5 4 4 4 5 4 7 7 5 6 6 8 9 10 10 11 11 9 7 6 8 8 8 9 8 9 9 8 9 9 8 8 9 9
4 3 4 5 5 5 6 6 5 5 4 5 5 5 5 6 6 5 6 5 7 8 9 9 10 10 12 11 9 6 7 9 9 8 8 9 10 10 9 9 9 9
4 4 5 6 6 6 6 6 7 6 7 6 5 7 7 5 7 7 6 8 7 7 7 8 9 9 9 10 11 12 10 9 8 8 8 8 9 9 9 8 9 10
8 8 8 7 7 7 7 7 7 7 7 7 6 6 7 8 7 7 7 7 8 8 8 9 8 8 9 10 10 10 10 12 12 11 10 9 7 8 8 8 9 9
6 6 7 8 8 8 8 7 7 7 7 7 6 7 8 7 8 8 9 7 8 8 9 8 8 9 9 9 9 9 10 10 10 11 12 11 11 10 9 9 9 9
6 6 6 8 9 10 11 11 10 10 9 8 7 7 8 8 8 8 9 9 8 8 9 8 9 10 9 8 9 10 9 10 11 11 12 12 12 12 11 10 10 9
7 8 9 10 10 11 11 11 11 11 11 11 12 11 10 9 9 10 10 10 11 10 9 9 9 8 10 17 16 12 11 11 11 11 11 11 11 12 12 12 11 11
7 9 9 11 10 10 10 11 12 11 11 11 12 12 13 12 11 12 11 11 12 12 13 11 10 10 17 20 21 23 15 12 12 12 12 11 11 12 13 13 12 12
8 9 10 10 9 9 10 9 10 11 11 12 12 13 13 11 12 12 12 12 11 12 13 13 13 15 23 23 23 23 21 14 12 12 12 12 12 13 13 12 13 12
8 8 9 9 9 8 8 9 10 11 12 13 14 13 12 12 13 13 13 13 12 13 14 14 14 19 25 26 26 26 25 21 12 13 14 14 14 15 15 15 13 12
8 8 9 9 9 10 10 11 11 12 12 11 11 11 12 13 13 14 14 14 14 14 14 14 16 18 26 27 27 27 27 23 13 14 15 15 16 16 15 15 15 14
8 8 9 10 10 10 11 12 12 12 12 11 10 11 13 13 13 14 14 15 15 14 15 16 16 25 28 29 28 29 29 25 15 15 15 15 16 16 17 16 16 15
8 9 9 9 10 11 11 12 12 11 12 12 12 12 12 13 14 13 16 17 16 15 16 18 18 29 30 30 30 29 31 19 14 14 14 14 16 17 16 15 14 14
8 9 10 11 11 11 11 11 11 12 12 10 13 13 13 13 13 14 13 14 16 15 15 17 18 24 30 30 30 32 25 15 14 14 14 15 17 16 15 15 16 16
8 9 10 11 11 11 12 12 11 11 11 10 11 13 14 12 12 13 12 11 13 14 12 15 18 23 30 30 31 32 27 19 14 14 15 16 16 16 15 14 18 30
7 8 9 11 12 12 11 13 13 12 11 10 10 10 11 10 10 11 14 11 10 14 22 22 17 22 29 30 33 31 24 16 14 13 13 14 13 14 14 14 14 19
7 9 9 10 12 13 11 11 11 11 11 11 12 10 12 11 11 12 14 12 11 13 12 13 16 18 20 29 28 29 28 19 14 14 14 15 13 12 12 15 15 16
Wind_Direction
31 29 25 20 16 9 5 10 8 14 10 7 15 3 5 351 348 349 344 341 342 341 340 332 322 312 298 294 284 281 276 269 273 267 259 247 246 242 246 244 240 230
24 25 24 19 17 10 5 8 2 9 5 8 4 2 1 0 354 355 350 346 343 342 336 335 331 319 310 304 298 294 286 282 276 274 268 263 254 247 249 246 245 244
30 28 23 22 15 5 4 2 7 3 4 355 358 7 2 3 355 353 351 350 346 342 342 337 334 331 321 309 302 296 286 282 279 276 271 266 265 256 252 249 251 245
22 26 27 17 13 8 359 6 4 7 357 3 3 355 3 355 356 352 349 351 348 339 336 336 334 329 328 320 316 305 289 280 270 276 279 279 270 260 262 255 253 257
5 8 14 14 2 360 1 12 9 1 359 351 354 357 359 358 353 352 351 345 347 342 339 337 332 328 326 324 321 313 303 292 288 281 275 275 272 266 264 259 260 259
333 347 358 359 0 1 3 2 355 353 351 357 357 346 354 352 351 349 347 345 342 340 336 336 336 332 332 327 323 312 302 300 288 286 281 273 274 267 265 261 262 263
331 351 356 357 6 356 4 350 350 348 349 344 343 352 352 349 351 347 339 338 334 334 333 329 329 328 330 330 326 319 313 300 295 290 282 278 274 275 268 260 259 260
338 350 359 352 357 337 337 331 327 330 323 335 338 330 347 342 341 341 338 335 331 324 327 324 322 323 321 323 319 319 315 309 300 293 286 279 276 276 275 268 259 260
326 336 335 332 337 316 308 308 308 320 322 326 314 316 324 326 322 326 326 329 329 327 325 324 320 319 321 319 315 310 306 307 306 298 286 282 279 269 269 269 270 263
336 323 347 331 339 315 313 299 302 307 308 310 295 303 309 304 308 308 315 317 316 316 320 320 320 316 313 310 309 309 306 301 300 298 295 286 277 272 267 263 260 265
330 328 332 327 321 316 308 300 291 292 292 284 286 287 280 283 281 279 283 283 286 291 299 305 307 312 316 314 305 295 296 297 294 290 286 285 282 281 277 268 264 258
329 335 330 322 314 308 304 299 296 297 298 292 285 290 290 282 281 283 276 278 274 273 276 282 288 295 296 296 301 307 305 295 287 282 277 274 276 275 274 270 271 270
347 339 329 321 314 308 306 306 302 301 299 294 292 285 289 291 284 280 276 271 275 275 272 272 273 273 277 280 284 287 290 295 298 296 289 283 272 268 266 267 265 268
321 314 313 310 308 307 305 300 297 296 295 293 296 294 288 283 284 285 285 280 276 276 274 273 273 275 271 267 264 265 271 275 276 281 285 287 287 283 279 273 267 264
315 312 307 306 308 310 311 311 309 305 299 292 287 286 288 286 285 282 285 285 279 273 275 270 271 272 274 271 273 273 267 264 266 266 268 272 276 279 275 273 272 266
317 314 312 310 310 309 308 307 307 307 307 307 306 302 297 293 289 287 285 286 289 287 281 279 276 274 266 270 273 275 276 275 270 266 262 261 265 270 274 271 264 265
318 314 312 309 306 308 306 306 305 305 304 303 303 302 301 299 294 290 291 291 291 293 293 289 283 280 280 284 285 284 282 280 278 275 270 266 263 264 265 267 269 265
321 312 307 304 307 304 304 304 306 307 305 304 303 301 298 294 291 289 288 288 289 289 288 288 288 285 287 289 289 289 287 284 281 279 276 273 272 268 266 264 263 262
316 310 308 309 311 311 310 311 310 307 306 304 300 298 298 295 293 294 292 291 289 287 285 286 285 286 289 291 292 292 291 290 284 282 281 279 276 273 271 269 266 264
316 316 313 314 318 318 317 313 310 304 301 299 299 301 299 299 298 297 296 294 293 292 290 288 285 286 290 293 294 295 295 295 290 287 284 279 277 274 271 269 267 267
322 320 318 318 319 318 315 310 307 306 306 309 311 306 305 303 302 302 298 296 296 295 294 292 289 291 293 294 296 297 296 297 294 290 287 285 283 282 278 276 272 270
329 322 320 321 318 314 310 307 308 311 315 318 311 303 300 299 296 297 296 296 296 296 296 292 291 293 295 296 296 296 295 294 292 288 288 286 285 284 282 281 280 273
334 326 320 318 315 312 309 311 314 313 310 311 303 301 300 299 298 295 295 296 296 296 294 292 291 294 297 297 297 296 296 294 291 287 283 282 280 281 280 277 275 275
329 324 317 315 314 311 311 309 309 304 301 305 299 301 298 298 301 298 295 295 296 297 295 295 294 296 299 301 300 298 297 297 296 291 284 280 279 277 277 275 274 275
320 315 310 308 307 305 307 306 305 302 299 297 289 289 287 291 290 290 289 287 287 290 297 297 298 300 302 301 298 297 298 294 290 283 281 277 276 276 273 273 275 276
310 306 303 303 302 302 300 297 299 299 297 297 292 286 288 288 285 283 284 287 290 289 287 287 291 293 297 299 299 299 299 297 290 288 284 287 285 282 282 274 270 271